AirNav   Air Wisconsin pilot careers
 
 1654 users online  

MA33 Sagamore Hill Heliport
Ipswich, Massachusetts, USA

GOING TO IPSWICH?


FAA INFORMATION EFFECTIVE 01 FEBRUARY 2018

Location

FAA Identifier: MA33
Lat/Long: 42-38-30.9400N / 070-49-36.3700W
42-38.515667N / 070-49.606167W
42.6419278 / -70.8267694
(estimated)
Elevation: 200 ft. / 61 m (estimated)
Variation: 16W (2000)
From city: 5 miles SW of IPSWICH, MA
Time zone: UTC -5 (UTC -4 during Daylight Saving Time)
Zip code: 01938

Heliport Operations

Heliport use: Private use. Permission required prior to landing
Activation date: 04/2001
Control tower: no
ARTCC: BOSTON CENTER
FSS: BRIDGEPORT FLIGHT SERVICE STATION
Attendance: UNATNDD
Segmented circle: no

Heliport Communications

WX ASOS at BVY (5 nm SW): PHONE 978-921-5042
WX ASOS at LWM (14 nm W): 126.75 (978-687-8017)
WX ASOS at BOS (19 nm SW): PHONE 617-567-5762

Nearby radio navigation aids

VOR radial/distance  VOR name  Freq  Var
LWMr132/13.2LAWRENCE VOR/DME112.5015W
BOSr039/18.5BOSTON VOR/DME112.7016W
PSMr196/26.6PEASE VOR/DME116.5016W
MHTr135/27.5MANCHESTER VOR/DME114.4015W

 
NDB name  Hdg/Dist  Freq  Var  ID
SHAKER HILL070/19.125116WSKR ... -.- .-.
MARSHFIELD004/33.336816WIMR .. -- .-.
ROLLINS196/34.726016WESG . ... --.

Heliport Services

Runway Information

Helipad HI

Dimensions: 50 x 50 ft. / 15 x 15 m
Surface: turf
Traffic pattern: leftleft

Heliport Ownership and Management from official FAA records

Ownership: Privately-owned
Owner: JOHN DONOVAN
219 VASSAR ST
CAMBRIDGE, MA 02139
Phone 617-528-1699
Manager: JOHN DONOVAN
219 VASSAR ST.
CAMBRIDGE, MA 02139
Phone 617-528-1699

Additional Remarks

25 FT TREES ALL QUANDRANTS.
SCHOOL 3,800 FT NE OF HELIPAD.

Instrument Procedures

There are no published instrument procedures at MA33.

Some nearby airports with instrument procedures:

KBVY - Beverly Regional Airport (5 nm SW)
KLWM - Lawrence Municipal Airport (14 nm W)
KBOS - General Edward Lawrence Logan International Airport (19 nm SW)
KBED - Laurence G Hanscom Field Airport (23 nm SW)
KPSM - Portsmouth International Airport at Pease (26 nm N)
 
Loc | Ops | Rwys | IFR | FBO | Links
Com | Nav | Svcs | Stats | Notes

AirNav Hotels Sweepstakes
 
Area around MA33 (Sagamore Hill Heliport)
 
Road maps at: MapQuest Bing Google
 
Aerial photo
No photo
 
Sectional chart

 
Airport distance calculator
Flying to Sagamore Hill Heliport? Find the distance to fly.

From to MA33

Sunrise and sunset
Times for 20-Feb-2018
 Local
(UTC-5)
 Zulu
(UTC)
Morning civil twilight06:0511:05
Sunrise06:3411:34
Sunset17:2022:20
Evening civil twilight17:4922:49

Current date and time
Zulu (UTC)  20-Feb-2018 15:58:03
Local (UTC-5)  20-Feb-2018 10:58:03
 
METAR
KBVY 
5nm SW 
201553Z 22012KT 10SM FEW100 BKN250 16/11 A3022 RMK AO2 SLP228 T01560106
KLWM 
14nm W 
201554Z 22010KT 10SM CLR 16/11 A3023 RMK AO2 SLP238 T01560106
KBOS 
19nm SW 
201554Z 23009KT 10SM FEW030 FEW100 BKN250 16/11 A3023 RMK AO2 SLP237 T01610111
TAF
KBOS 
19nm SW 
201402Z 2014/2118 23011KT P6SM SCT010 BKN100 FM201900 24011G23KT P6SM SCT045 FM202300 23010G17KT P6SM BKN045 FM210200 22008KT P6SM BKN015 WS020/25040KT FM210600 23009KT 6SM BR SCT003 BKN008 WS020/25040KT FM211300 23009KT P6SM BKN010 FM211500 23012G23KT P6SM SCT015
NOTAMs
Click for the latest NOTAMs
NOTAMs are issued by the DoD/FAA and will open in a separate window not controlled by AirNav.

 

 
 

Would you like to see your business listed on this page?

 If your business provides an interesting product or service to pilots, flight crews, aircraft, or users of the Sagamore Hill Heliport, you should consider listing it here.  To start the listing process, click on the button below
 
Add a business
 

Other Pages about Sagamore Hill Heliport

Update a link
 
Copyright © AirNav, LLC. All rights reserved. Privacy Policy  Contact